Regional Weather Roundup
Issued by NWS

Home | Current Version | Previous Version | Text Only | Print | Product List | Glossary Off
Versions: 1 2 3 4 5 6 7 8 9 10 11 12 13 14 15 16 17 18 19 20 21 22 23 24 25 26 27 28 29 30 31 32 33 34 35 36 37 38 39 40 41 42 43 44 45 46 47 48 49 50

000
ASUS43 KLOT 200904
RWRIL

ILLINOIS REGIONAL WEATHER ROUNDUP
NATIONAL WEATHER SERVICE CHICAGO/ROMEOVILLE IL
300 AM CST TUE FEB 20 2018

NOTE: "FAIR" INDICATES FEW OR NO CLOUDS BELOW 12,000 FEET WITH NO
SIGNIFICANT WEATHER AND/OR OBSTRUCTIONS TO VISIBILITY.

* THESE STATIONS ARE NOT UNDER NWS QUALITY CONTROL. THEY ALSO MAY NOT
  REPORT WEATHER SUCH AS PRECIPITATION OR FOG.

ILZ001-002-007-009-015-016-024-201000-
NORTHWEST ILLINOIS

CITY           SKY/WX    TMP DP  RH WIND       PRES   REMARKS
MOLINE         LGT RAIN  39  39 100 S3        29.80R FOG
STERLING*        N/A    N/A N/A N/A MISG        N/A
SAVANNA*       LGT RAIN  37  37  99 S5        29.78F VSB 3/4 WCI  33
$$

ILZ003-004-008-010-011-017-018-201000-
NORTH CENTRAL ILLINOIS

CITY           SKY/WX    TMP DP  RH WIND       PRES   REMARKS
ROCKFORD       LGT RAIN  43  43 100 S6        29.81F VSB 1/2
FREEPORT*      CLOUDY    38  38 100 S6        29.79F FOG     WCI  33
ROCHELLE*      RAIN      41  41 100 SW3       29.82F VSB 3/4
DE KALB*       RAIN      49  49 100 W8        29.82S
PERU*          RAIN      46  45  97 W6        29.83S
$$

ILZ005-006-012>014-019>023-201000-
NORTHEAST ILLINOIS

CITY           SKY/WX    TMP DP  RH WIND       PRES   REMARKS
CHICAGO-OHARE  RAIN      60  58  92 SW14      29.81S
CHICAGO-MIDWAY LGT RAIN  60  60 100 S12       29.82F FOG
AURORA         RAIN      57  57 100 SW9       29.82S FOG
LANSING*       RAIN      59  59 100 SW18G24   29.85F
JOLIET*        RAIN      61  61  99 SW9       29.83S
WAUKEGAN       LGT RAIN  58  58 100 SW20      29.79S FOG
DUPAGE AIRPORT CLOUDY    58  58 100 S16G26    29.81S FOG
KANKAKEE*      RAIN      59  59  98 SW13      29.87S
WHEELING       LGT RAIN  61  59  93 SW13G21   29.82S FOG
MORRIS*        RAIN      59  58  97 SW17      29.81F
ROMEOVILLE*    RAIN      59  58  98 SW14      29.83S
NORTHERLY ISL    N/A     60  57  89 SW12        N/A
$$

LMZ740>746-201000-
SOUTHERN LAKE MICHIGAN

STATION/POSITION SKY/WX   TEMP    WIND        PRES    VSBY  WAVE
                          AIR SEA DIR/SP/G                  HT/PER
                          (F)     (DEG/KT/KT) (MB)    (MI)  (FT/S)
HARRISON CRIB              59     210/ 20/ 21   N/A
BURNHAM HARBOR             60     200/ 13/ 16   N/A
CALUMET HARBOR             59     190/ 11/ 16 1009.8F
BURNS HARBOR               59     200/ 21/ 26 1011.2F
MICHIGAN CITY              60     180/ 21/ 25   N/A
$$

ILZ025>027-034>036-040-047-049-050-058-095>099-201000-
WEST-CENTRAL ILLINOIS

CITY           SKY/WX    TMP DP  RH WIND       PRES   REMARKS
QUINCY         LGT RAIN  49  48  97 E7        29.78F
GALESBURG*     LGT RAIN  40  40 100 S3        29.81F
MACOMB*        LGT RAIN  42  42  99 E5        29.82F
JACKSONVILLE*  TSTM      63  59  88 S16       29.80F
PITTSFIELD*    CLOUDY    63  60  92 S9G16     29.80S
$$

ILZ028>032-037-038-041>044-048-051>054-059>061-201000-
CENTRAL ILLINOIS

CITY           SKY/WX    TMP DP  RH WIND       PRES   REMARKS
BLOOMINGTON    LGT RAIN  61  58  90 S24       29.83F
DECATUR        FAIR      63  57  81 S21G30    29.85F
PEORIA         CLOUDY    61  60  97 SW12      29.80F
LACON*         RAIN      58  58 100 SW7       29.81F
LINCOLN*       CLOUDY    63  60  93 S13       29.83S
SPRINGFIELD    CLOUDY    64  63  96 S15       29.82F THUNDER
TAYLORVILLE    CLOUDY    62  56  81 S21       29.85F
$$

ILZ033-039-045-046-055>057-062-063-201000-
EAST-CENTRAL ILLINOIS

CITY           SKY/WX    TMP DP  RH WIND       PRES   REMARKS
CHAMPAIGN      FAIR      61  58  90 S24       29.88F
DANVILLE*      CLOUDY    63  58  84 S21       29.87F
RANTOUL*       MOCLDY    63  59  88 S18       29.88F
MATTOON        MOCLDY    62  57  83 S14G22    29.91S
PARIS*         FAIR      63  59  87 S22       29.94S
$$

ILZ079-100>102-201000-
SOUTHWEST ILLINOIS

CITY           SKY/WX    TMP DP  RH WIND       PRES   REMARKS
ALTON          CLOUDY    64  58  82 S15G23    29.86F
BELLEVILLE     CLOUDY    65  56  73 S20G26    29.86F
CAHOKIA*         N/A    N/A N/A N/A MISG      29.84F
SPARTA*        PTCLDY    66  59  80 S17G31    29.93F
$$

ILZ064>066-069>071-074>076-080>082-084>086-088>090-092>094-201000-
SOUTH-CENTRAL ILLINOIS

CITY           SKY/WX    TMP DP  RH WIND       PRES   REMARKS
CARBONDALE     FAIR      68  60  75 S24G38    29.98R
CAIRO*         CLOUDY    66  60  81 S12G18    30.02S
EFFINGHAM*     FAIR      63  59  87 SE10G18   29.95S
MARION         MOCLDY    67  62  85 S20G29    30.00R
MT. VERNON     FAIR      66  60  81 S20G26    29.96S
CENTRALIA*     CLOUDY    67  60  77 S18       29.93S
SALEM*         FAIR      67  58  73 S18       29.93S
METROPOLIS*    CLOUDY    69  60  73 S14G22    30.04R
$$

ILZ067-068-072-073-078-083-087-091-201000-
SOUTHEAST ILLINOIS

CITY           SKY/WX    TMP DP  RH WIND       PRES   REMARKS
LAWRENCEVILLE  FAIR      63  58  83 S17       29.99F
FLORA*         FAIR      65  59  82 S16       29.96F
FAIRFIELD*     FAIR      64  59  85 S10       29.97S
HARRISBURG*    FAIR      68  61  78 S17       30.00F
ROBINSON*      FAIR      61  57  88 S12       29.98F
CARMI*         FAIR      65  59  82 S16       30.00S
$$

ABBREVIATIONS USED IN REMARKS
   TC - TEMPERATURE IN CELSIUS
  WCI - WIND CHILL INDEX
   HX - HEAT INDEX
  VSB - VISIBILITY
$$





USA.gov is the U.S. government's official web portal to all federal, state and local government web resources and services.